Theta_e
313 310 310 310 310 312 313 314 314 313 313 314 313 312 312 314 315 312 308 307 306 306 304 305 305 305 306 306 307 307 308 309 310 310 312 316 321 322 321 321 321 321 321 321
311 311 311 311 312 313 313 313 312 312 313 313 312 312 311 312 313 312 307 306 306 305 305 304 304 305 306 306 306 306 306 307 309 312 313 314 316 318 318 318 318 319 319 318
311 313 313 313 313 314 314 313 313 313 312 312 312 311 312 312 307 307 306 306 306 305 304 303 304 305 305 305 305 306 305 305 305 306 307 309 312 314 316 315 315 315 315 315
311 312 313 313 314 313 314 312 313 313 312 313 312 314 312 311 308 306 305 305 304 304 303 302 303 304 304 304 304 305 306 306 307 306 306 305 304 305 306 306 307 307 308 311
315 312 312 312 313 311 313 311 312 312 312 312 312 312 311 309 309 306 304 303 303 303 302 303 303 303 302 302 303 303 305 305 305 306 306 306 305 303 302 303 303 302 302 302
311 310 311 311 311 312 309 310 310 310 311 313 312 313 312 309 309 305 304 303 303 302 302 301 301 301 301 300 300 301 302 303 303 304 304 304 304 303 303 302 302 301 300 300
313 311 310 311 311 309 310 310 315 314 312 315 312 313 313 309 307 305 303 303 302 302 301 300 300 299 299 298 298 299 299 300 300 301 301 302 302 301 301 300 299 299 300 299
316 317 311 309 311 313 310 313 317 319 315 312 311 314 314 304 303 303 303 302 302 301 300 300 299 298 298 297 297 296 296 297 296 296 296 296 296 297 296 296 295 296 295 295
318 317 310 310 311 312 313 314 312 313 304 311 313 312 307 304 302 302 301 301 300 300 299 298 298 297 296 294 293 292 291 290 290 290 290 291 291 291 290 289 289 289 289 289
315 316 314 310 311 311 312 312 315 312 312 311 312 312 312 307 304 301 299 299 299 299 297 297 296 295 293 292 291 290 290 289 289 289 289 288 288 288 288 288 288 287 287 287
313 315 314 311 312 312 311 310 314 313 311 310 309 310 308 308 304 301 300 299 298 297 297 297 296 294 292 291 291 290 289 289 288 288 288 287 287 287 287 287 287 287 287 287
312 312 309 312 310 309 310 311 311 314 311 308 313 312 303 301 301 301 299 300 300 300 299 296 295 292 291 291 290 289 288 288 288 287 287 287 287 287 287 287 287 287 287 287
312 310 306 306 306 310 312 310 309 309 310 312 313 310 302 301 300 302 302 302 302 299 296 293 293 292 291 291 289 288 288 288 288 287 287 287 287 287 287 286 286 286 286 286
311 311 306 308 304 306 307 306 306 307 309 305 307 307 305 304 303 301 303 304 302 299 296 294 292 292 291 291 290 289 289 288 288 288 287 287 287 287 287 286 286 285 285 285
308 305 307 307 306 305 306 305 305 305 305 305 304 303 303 302 298 297 298 301 301 297 295 294 292 291 290 289 289 289 289 288 288 288 288 287 287 287 286 285 285 285 285 285
305 301 301 298 302 302 302 301 301 301 301 301 301 301 299 297 296 296 296 296 294 294 294 292 290 290 289 289 289 289 288 288 288 287 287 286 286 285 285 284 284 284 284 283
301 297 293 298 300 298 294 298 297 297 297 298 298 298 292 294 294 293 293 293 292 291 291 291 290 290 289 289 289 289 288 288 288 287 286 285 284 283 283 283 283 282 282 282
299 294 290 289 287 291 295 295 296 296 296 294 293 289 291 293 291 291 291 291 291 291 291 291 291 290 289 289 289 289 288 288 287 286 285 283 282 282 282 281 281 281 281 281
298 296 289 290 283 291 295 295 295 295 292 291 290 291 292 290 290 290 291 291 291 291 291 290 290 290 289 289 289 288 287 286 285 285 283 283 282 281 280 280 280 280 279 279
295 297 295 285 293 290 292 293 294 292 291 290 291 289 290 290 287 286 291 290 290 290 290 290 290 289 289 289 288 287 286 285 284 283 282 281 280 279 280 279 279 278 277 276
283 283 296 295 295 290 290 292 293 288 290 293 295 291 291 288 290 291 290 290 290 290 290 290 289 289 289 289 288 287 286 284 283 282 281 280 279 279 278 278 276 275 274 272
290 287 283 280 281 290 292 290 291 291 293 292 293 292 291 291 291 291 290 290 290 290 290 289 289 289 288 287 286 285 284 282 282 281 280 279 279 278 277 276 275 273 271 270
289 289 286 289 288 291 292 292 293 293 292 292 292 291 291 291 291 290 290 290 290 290 289 289 289 288 287 286 285 283 282 282 281 280 279 279 278 277 275 274 273 271 270 269
289 290 289 288 289 290 292 292 292 291 292 291 291 291 291 290 290 290 290 290 289 289 289 289 288 287 286 285 283 282 281 281 280 280 279 279 277 276 275 273 271 270 269 267
289 289 287 288 290 291 291 292 292 291 291 291 291 291 291 290 290 289 289 289 289 289 288 287 286 285 284 282 281 280 280 279 279 279 279 277 276 275 274 272 270 268 268 265
291 291 291 291 291 291 291 292 292 291 291 291 291 290 290 290 290 289 289 288 288 287 286 285 284 284 282 281 281 279 279 278 278 278 277 276 275 274 273 271 270 270 268 266
Wind_Speed
5 4 6 11 11 4 2 3 4 5 9 2 8 6 9 19 27 9 18 19 17 19 17 17 18 19 19 17 15 12 5 2 4 6 8 11 13 12 9 13 15 18 20 22
4 5 13 7 5 6 6 5 6 5 5 1 7 9 9 16 10 10 26 20 18 16 16 18 20 21 23 24 24 20 16 10 7 4 3 1 4 8 9 9 14 15 17 20
8 8 7 6 6 7 4 5 4 8 5 3 3 7 8 3 19 23 18 19 17 17 17 17 18 21 23 27 28 27 25 22 19 15 8 5 2 6 9 8 11 12 14 17
6 14 7 6 6 6 4 5 5 5 2 4 3 6 6 4 7 6 15 18 17 16 16 16 18 20 22 24 22 23 23 23 23 21 19 17 14 8 5 4 7 10 14 16
6 4 4 5 6 8 8 3 2 2 2 3 3 1 7 9 4 6 10 16 16 15 14 15 15 16 17 17 18 18 18 19 19 18 17 16 15 11 7 7 9 8 8 9
5 1 3 5 1 2 5 2 3 4 3 2 7 7 5 5 8 6 12 19 17 14 12 12 12 13 14 14 15 16 16 17 17 16 15 14 13 12 9 9 8 7 7 8
2 4 3 4 2 4 3 5 2 1 0 6 5 2 8 4 5 10 15 21 17 11 11 9 9 10 12 13 14 14 14 14 14 12 12 12 13 12 13 14 15 14 11 9
5 4 8 5 6 6 5 6 4 5 3 4 5 5 4 4 19 25 22 19 15 11 8 6 6 7 8 9 10 10 11 13 12 12 13 14 13 13 13 14 15 15 16 16
5 5 2 2 2 6 4 4 2 3 1 2 4 5 2 5 7 16 19 15 11 9 6 3 3 5 6 5 6 9 12 12 12 13 13 13 12 13 15 15 15 16 17 18
2 2 3 1 3 2 2 5 2 2 2 4 5 5 5 5 7 6 11 14 10 8 7 4 1 2 3 5 7 10 10 11 12 11 11 12 12 12 13 15 17 18 19 20
3 4 3 5 5 7 2 2 3 3 4 4 2 5 3 6 8 9 11 14 13 11 8 6 5 3 2 4 5 6 8 9 11 11 12 12 12 14 14 16 17 20 22 24
1 4 4 8 4 5 5 5 4 3 5 3 4 8 4 8 10 19 17 16 15 15 14 12 7 6 3 4 3 4 6 8 11 12 13 15 17 19 21 21 22 23 25 25
6 1 2 9 3 3 2 3 4 3 3 9 8 9 3 10 12 17 17 18 20 20 17 13 12 10 8 6 4 3 5 10 14 16 18 19 20 23 26 28 29 30 31 31
7 4 6 8 4 3 3 6 3 4 4 4 10 11 17 9 5 11 18 21 22 22 19 15 15 14 11 9 8 7 7 10 13 15 17 19 23 26 28 29 30 32 34 36
5 5 4 4 4 2 3 7 11 5 11 8 20 15 18 12 2 2 1 3 13 17 19 17 17 15 13 12 12 11 12 14 16 17 18 21 25 28 30 32 33 35 38 41
1 2 2 4 3 4 7 14 11 14 16 14 18 21 18 4 3 3 4 6 8 10 17 17 17 15 14 14 13 13 15 15 18 19 22 24 30 32 32 35 39 43 47 49
4 5 3 6 2 2 7 17 17 12 13 7 11 11 3 4 5 6 6 4 3 6 8 10 15 16 16 16 17 16 17 19 20 21 24 28 31 33 36 40 44 48 51 53
6 6 3 4 3 2 8 4 6 7 7 6 1 4 8 7 7 5 6 8 10 7 8 12 14 14 18 18 18 20 21 22 24 27 29 31 33 37 41 44 47 49 51 54
7 5 1 3 5 6 12 6 5 5 6 6 5 4 10 7 2 5 2 2 3 8 12 14 15 16 15 18 20 21 22 22 26 30 32 34 38 42 44 46 48 49 51 53
8 8 7 3 6 9 6 3 7 7 9 11 10 9 10 5 1 4 7 14 19 20 21 18 15 15 17 18 20 21 23 27 29 31 34 38 42 44 46 47 48 50 51 54
3 2 15 14 8 6 5 7 7 4 8 5 10 17 12 5 11 13 18 15 18 22 19 18 18 21 23 21 22 25 27 28 30 34 39 42 41 43 44 46 47 49 51 51
7 6 4 2 2 7 11 4 7 8 8 6 12 16 16 17 21 22 21 21 20 20 20 21 21 21 22 22 25 26 27 29 33 38 41 41 41 41 43 44 47 47 45 44
2 7 5 9 6 6 18 8 14 12 11 12 15 21 25 25 23 22 22 22 21 21 22 23 21 24 23 25 26 27 27 31 36 38 40 40 41 41 41 42 44 42 38 39
5 4 4 4 5 10 21 25 26 26 26 26 23 22 23 25 18 23 24 24 24 25 24 24 25 25 25 25 25 25 29 34 36 39 39 39 40 41 41 41 38 36 36 38
9 6 4 5 12 20 27 33 35 34 31 31 29 27 26 20 23 24 26 26 27 27 26 27 26 25 24 24 24 26 30 33 35 37 37 37 39 40 41 40 36 35 34 32
16 15 9 12 23 17 21 32 30 26 26 25 22 22 25 26 26 28 28 26 26 26 27 26 25 25 24 23 25 26 29 31 34 35 34 35 37 38 39 40 39 33 32 30
Wind_Direction
183 113 200 217 209 214 271 266 274 271 275 297 266 230 252 265 282 106 112 108 91 71 62 58 58 58 57 57 63 69 74 93 245 230 229 226 232 231 252 255 255 256 256 257
55 216 224 221 225 217 232 236 260 273 267 202 281 285 264 259 278 172 137 121 107 96 81 69 66 66 65 65 63 61 63 67 67 41 45 177 227 238 241 257 262 261 265 263
172 218 201 192 254 263 221 219 236 229 312 287 340 306 263 18 88 106 113 117 109 104 95 83 77 70 68 66 65 64 63 63 60 57 47 10 285 244 224 242 255 261 270 273
223 237 252 269 225 193 267 213 235 242 120 233 75 286 255 200 121 95 116 112 107 103 97 89 82 76 71 69 67 66 66 63 61 56 54 54 51 40 25 308 273 263 260 258
241 161 191 202 217 161 223 133 166 229 238 33 278 253 266 112 168 153 126 117 111 109 106 98 86 78 72 68 63 58 58 57 58 56 57 57 56 48 13 333 327 318 301 271
245 178 199 212 77 146 142 78 9 61 101 314 237 169 274 186 187 148 140 129 124 121 112 99 88 77 67 58 55 50 43 45 41 35 38 39 43 47 41 27 9 344 320 305
253 217 218 182 157 15 94 83 291 3 148 222 183 168 238 3 81 144 134 132 130 130 121 109 86 67 55 46 41 41 42 46 42 36 37 37 36 32 28 25 22 20 16 352
174 288 177 186 177 189 168 184 174 232 229 257 346 266 274 78 93 123 135 137 137 131 120 99 71 60 44 33 33 39 46 52 51 47 48 48 43 36 32 27 21 14 12 12
196 242 6 150 130 143 199 197 164 116 65 52 226 284 96 85 102 129 137 138 137 142 130 109 59 26 25 25 48 50 45 48 51 49 44 40 38 33 29 23 17 11 6 4
182 283 262 130 88 337 181 154 92 30 191 238 274 254 234 188 176 153 149 155 158 147 148 151 338 343 12 33 28 26 27 26 31 35 36 30 25 21 14 4 360 357 353 351
139 144 255 136 189 173 151 228 218 177 169 201 214 252 145 144 174 170 164 165 162 174 207 234 234 253 318 357 0 6 15 9 10 13 14 8 4 357 353 348 343 338 337 335
179 158 216 224 265 157 193 228 199 215 255 247 243 251 108 120 123 144 160 180 213 229 227 218 215 192 206 271 300 347 2 348 352 353 354 352 348 344 340 336 333 330 328 326
174 213 342 328 31 30 165 132 97 1 80 240 254 257 170 127 143 175 194 223 232 225 208 195 186 195 218 235 258 313 341 337 340 339 336 337 336 333 332 331 329 326 324 323
149 158 178 228 190 97 291 298 272 191 244 267 256 285 287 283 203 230 246 253 243 221 216 205 205 219 233 245 260 271 297 318 324 326 319 318 322 324 322 321 319 319 318 317
148 204 183 261 298 80 237 262 274 224 248 229 267 271 270 292 291 294 355 303 218 207 205 215 220 225 237 245 254 270 294 307 313 319 319 314 316 316 315 314 314 312 311 310
80 253 119 282 240 277 283 267 263 253 255 254 257 263 276 211 224 217 189 198 186 191 215 221 215 222 236 249 258 263 266 282 298 308 311 307 311 312 313 313 312 311 310 309
140 131 85 259 171 47 312 248 253 245 249 239 258 259 173 216 220 179 198 206 208 223 229 224 232 254 251 243 252 260 275 291 300 300 303 306 308 310 312 311 311 310 309 307
155 124 121 229 46 265 250 289 215 218 237 221 156 225 208 202 184 203 265 276 273 263 258 261 264 267 241 248 256 267 283 295 298 303 307 309 310 311 311 310 310 309 307 305
178 141 184 171 204 298 294 255 202 197 273 193 205 207 186 169 203 260 295 25 297 273 278 273 268 260 252 259 271 280 289 295 301 306 309 311 311 312 313 313 312 310 307 304
176 195 175 151 201 209 237 164 140 112 272 221 220 190 170 146 145 249 308 294 291 283 287 287 277 264 266 272 280 289 296 302 306 309 312 313 316 317 317 316 314 312 310 307
104 60 212 221 230 275 236 189 144 106 262 166 205 184 175 186 218 286 305 286 289 283 280 270 268 271 272 276 288 293 300 305 308 311 313 316 318 318 317 316 316 315 314 312
159 173 200 104 95 270 182 133 161 222 177 202 207 207 222 258 275 289 295 289 292 275 275 269 263 263 270 283 291 296 302 307 310 313 315 317 319 319 320 320 321 320 316 312
259 196 183 184 204 199 180 213 242 229 230 246 247 263 271 273 276 286 287 289 286 271 261 258 269 276 279 288 294 299 304 310 312 314 316 319 320 322 325 326 326 317 317 316
271 149 219 75 226 222 249 260 267 261 259 270 276 274 273 275 271 286 285 277 281 272 265 266 270 276 281 289 295 300 308 310 313 316 318 320 321 325 329 331 323 321 324 322
218 171 185 251 255 264 266 265 266 269 271 275 275 277 276 265 275 283 280 274 271 264 265 270 275 280 286 292 296 306 310 312 315 315 318 322 325 329 332 328 330 328 326 316
226 236 240 248 252 238 252 269 269 275 269 267 267 267 269 275 284 286 282 271 260 260 265 270 276 282 288 291 298 307 310 312 314 315 319 325 327 331 332 328 334 340 332 315